Weather in Mont St Michel

France     48°37′42″N   1°31′48″W
temp.,
°C
wind,
m/s
gust,
m/s
humid.,
%
clouds,
%
prec.,
mm/h
press.,
hPa
HPBL,
m
16 april, fri
fri1623:00+3ne511892 0.0 1030324
02:00+1ne49875 0.0 1030190
05:000ne46885 0.0 1029113
08:00+1ne46871 0.0 1029129
11:00+8ene57572 0.0 1029953
14:00+10ne454851 0.0 10291789
17:00+11nne665159 0.0 10271434
20:00+7ne79695 0.0 1028623
17 april, sat
sat1723:00+3ne510810 0.0 1029215
02:00+2ne48855 0.0 1029146
05:00+2ne47913 0.0 1028120
08:00+2ne36927 0.0 1029127
11:00+9ne566821 0.0 1028993
14:00+10ne556493 0.0 10271226
17:00+10nne456083 0.0 10261104
20:00+8nne57715 0.1 1026424
18 april, sun
sun1823:00+3nne468941 0.0 102799
02:00+2ne348858 0.0 102666
05:00+2ne338799 0.0 102663
08:00+2ene3482100 0.0 102586
11:00+8ene236196 0.0 1025577
14:00+12nnw125199 0.0 10241077
17:00+11nw5465100 0.0 1023796
20:00+10nne467433 0.0 1022251
19 april, mon
mon1923:00+5ene478192 0.0 1023114
02:00+4e347799 0.0 102269
05:00+4e2282100 0.0 102150
08:00+4e3385100 0.0 102082
11:00+10sse2370100 0.0 1019406
14:00+12ssw2363100 0.0 1018975
17:00+13wnw2261100 0.0 1017837
20:00+10n3580100 0.1 1016144
20 april, tue
tue2023:00+10ne0180100 0.1 101710
02:00+9nw1184100 0.3 101635
05:00+8wnw1187100 0.1 101544
08:00+9nne1184100 0.1 101450
11:00+10nne2281100 0.0 1014271
14:00+10nw4379100 0.1 1014557
17:00+10wnw4477100 0.0 1013499
20:00+9nw348698 0.0 1013361